Wind_Speed
5 6 7 9 11 13 14 15 16 17 19 21 22 24 25 26 27 28 29 30 31 31 31 32 33 34 35 35 35 35 36 37 38 39 39 39 39 39 40 41 42 42 43 44
3 5 7 8 10 11 13 15 16 18 19 20 21 22 24 25 26 27 27 28 29 30 31 30 31 32 32 33 33 34 35 36 36 36 36 36 37 38 39 40 40 41 42 43
3 4 6 7 9 11 12 15 17 19 20 21 22 22 23 23 24 25 25 27 27 28 28 28 29 29 30 30 30 30 31 32 33 33 33 34 34 35 37 37 38 39 40 41
3 4 6 6 9 11 13 14 16 17 18 20 21 21 22 22 23 24 24 24 24 25 25 25 26 27 27 27 28 28 29 30 30 30 31 32 33 34 35 35 36 37 37 38
3 5 5 7 9 11 13 14 15 17 17 18 19 20 21 21 22 23 23 22 22 22 23 24 24 24 25 26 26 27 28 28 29 30 31 32 32 32 32 32 33 34 35 35
3 5 6 8 10 11 13 13 14 15 16 17 17 18 19 20 21 21 20 21 21 22 22 23 23 23 24 24 25 26 27 27 28 29 29 29 29 29 29 29 30 31 31 31
5 6 7 8 9 11 11 12 13 14 15 15 16 17 17 18 19 20 20 20 20 21 21 21 22 22 23 24 24 25 26 26 27 27 27 26 26 26 26 27 27 27 27 27
6 7 8 9 10 10 11 12 12 12 13 13 14 15 16 16 17 17 18 19 19 20 20 20 21 21 21 22 23 23 24 24 24 24 24 24 24 24 23 23 23 23 23 22
7 8 9 11 11 11 11 11 11 11 11 11 12 13 13 14 15 16 17 18 18 19 19 19 20 20 20 20 20 21 22 22 22 22 21 21 21 21 20 20 20 20 19 18
8 9 10 11 12 12 12 11 11 10 10 9 9 10 11 12 13 14 14 15 15 15 16 17 18 18 18 19 19 20 20 20 20 20 19 19 19 18 18 17 16 16 15 15
9 10 11 12 12 12 11 11 11 11 10 8 8 8 9 9 10 10 10 11 12 13 14 15 16 17 17 18 18 18 18 17 17 17 17 17 16 15 15 14 14 13 13 12
10 11 12 13 12 12 12 12 11 11 10 9 8 7 7 7 7 8 9 9 10 12 13 14 15 15 15 15 15 15 15 15 15 15 15 14 14 13 12 12 11 11 10 9
10 11 12 13 13 13 12 12 11 10 9 8 8 7 7 6 7 7 8 9 10 11 12 13 13 13 13 13 14 14 14 13 13 13 13 12 11 10 9 9 9 9 8 7
10 11 13 13 13 13 12 12 11 10 9 8 8 7 7 7 8 8 9 9 10 11 11 12 12 12 12 13 13 13 12 12 12 11 10 9 9 8 8 7 7 6 6 5
10 12 13 14 14 13 13 12 11 10 9 8 8 8 8 8 9 9 10 10 10 11 11 11 12 12 12 12 12 12 11 11 10 9 8 7 6 6 6 5 5 5 4 4
10 11 13 13 13 13 13 12 11 10 9 9 8 8 9 9 10 10 10 10 11 11 12 12 13 13 12 12 11 11 10 9 9 8 6 6 5 5 4 4 4 3 3 3
10 11 12 13 13 13 12 12 11 10 9 9 9 9 10 10 11 12 12 12 12 12 13 13 13 13 12 12 11 10 9 8 7 6 5 5 4 4 4 3 3 3 2 2
9 11 12 13 13 12 12 12 11 10 10 10 10 10 10 11 11 12 12 13 13 13 14 15 14 14 13 12 11 10 9 8 7 6 6 5 4 4 4 3 3 2 2 2
9 10 11 12 12 12 11 11 11 10 10 10 10 10 11 11 12 12 13 13 14 14 15 16 15 14 14 13 12 10 9 8 7 6 6 5 4 4 3 3 2 2 2 2
8 9 10 11 11 11 11 11 11 10 10 10 10 11 11 12 12 12 13 14 14 15 15 16 15 15 14 14 13 11 10 9 8 8 7 6 4 4 3 3 2 2 2 2
7 8 9 10 10 10 10 10 10 10 9 10 11 11 12 12 12 13 13 14 15 15 15 16 16 15 15 15 14 13 12 11 10 9 8 7 6 5 4 4 3 3 3 3
7 7 8 9 9 9 9 9 9 9 9 9 10 11 11 12 12 13 14 15 15 16 16 16 17 16 16 15 15 14 13 13 12 11 10 9 8 6 5 5 4 4 4 4
6 7 7 8 8 8 8 8 8 8 8 8 9 10 11 11 12 13 14 15 16 16 16 16 17 17 17 16 15 15 14 14 13 13 12 11 9 8 7 7 6 6 5 5
7 7 7 7 7 8 7 7 7 7 7 7 8 9 10 10 11 12 13 14 15 16 17 17 17 17 17 17 16 15 15 15 14 14 13 13 12 11 9 9 8 7 6 6
8 8 8 7 7 7 7 7 6 6 6 6 6 7 8 9 10 10 11 12 13 14 15 16 17 18 17 17 17 16 16 15 15 14 14 13 13 12 12 11 10 9 8 8
10 9 8 8 7 7 7 6 6 6 6 5 5 6 7 7 8 9 10 11 12 13 14 14 15 16 17 17 17 16 16 16 15 14 14 14 13 13 12 11 11 10 10 9
12 11 10 9 8 8 7 7 6 6 5 5 5 5 5 6 6 7 8 9 10 11 12 13 13 14 14 15 16 16 16 16 15 15 14 14 13 12 12 11 11 10 10 10
Wind_Direction
210 221 228 235 237 241 241 238 241 247 252 255 256 258 260 263 265 268 270 270 271 272 272 272 271 271 271 271 272 274 274 276 277 277 277 278 280 281 283 284 287 289 292 294
223 237 243 248 243 245 247 247 251 255 256 258 261 262 264 265 267 269 270 271 271 270 269 270 269 268 270 270 272 273 275 275 275 276 278 280 281 282 284 287 290 292 294 296
247 256 258 254 254 255 258 256 257 259 261 262 265 267 267 266 267 269 272 269 267 267 266 265 266 269 271 272 274 275 276 277 278 280 281 283 285 286 289 291 293 295 297 299
272 273 271 273 267 269 266 266 265 266 266 266 266 267 265 263 266 268 268 264 264 266 268 269 271 273 272 272 276 278 280 281 282 283 285 286 288 289 291 294 296 298 299 301
300 293 290 286 282 282 281 276 273 272 270 269 267 266 262 263 263 264 266 267 267 268 269 270 270 272 274 276 278 281 283 285 285 285 287 289 290 292 295 297 298 300 302 304
327 312 305 302 297 294 289 284 281 278 275 272 270 267 264 263 264 267 270 271 274 276 276 276 276 277 280 283 284 284 285 287 288 289 290 291 293 295 297 299 301 303 306 307
343 330 323 317 311 304 298 295 290 286 280 275 272 270 269 268 267 269 271 274 277 279 280 282 283 284 286 286 287 287 288 289 291 291 292 292 294 296 298 301 303 306 308 310
356 345 338 330 328 321 311 305 302 299 290 283 277 275 272 271 273 273 275 279 281 281 285 288 288 288 289 290 292 293 293 294 293 293 293 294 296 298 299 302 305 307 310 313
3 354 344 341 336 332 326 321 315 309 302 293 286 282 280 277 275 275 278 281 283 283 284 287 290 292 294 296 297 298 298 296 295 294 295 297 298 299 301 304 306 309 312 316
1 354 349 346 344 340 337 337 335 329 319 309 295 287 285 284 285 284 282 281 283 286 289 292 294 295 296 299 302 302 300 298 297 297 297 297 297 298 301 304 308 311 315 319
2 358 355 352 350 349 347 345 343 342 336 326 319 309 303 294 287 284 285 287 290 296 300 301 301 301 303 304 305 306 306 305 304 302 301 298 297 297 300 304 309 313 317 322
2 1 359 357 355 354 353 351 350 349 348 344 339 335 325 318 310 305 304 303 304 306 307 306 307 307 309 309 310 312 311 310 309 307 305 303 300 299 299 304 310 316 320 326
3 2 1 0 359 358 357 356 355 353 353 352 351 348 345 340 334 328 325 321 318 316 316 316 315 315 316 316 318 318 316 315 315 314 312 309 306 304 304 307 314 319 325 332
5 4 3 3 2 2 1 359 358 357 358 359 358 358 355 352 349 345 341 336 333 332 331 330 326 323 322 322 322 321 320 322 323 321 318 315 311 309 307 309 313 320 329 339
7 6 5 5 5 6 5 3 3 4 6 6 7 7 4 1 359 356 352 349 347 346 344 341 337 332 329 328 328 328 326 327 328 326 323 322 320 314 312 311 315 324 337 348
9 8 6 6 7 8 8 7 9 11 12 13 13 13 13 10 8 5 4 2 359 356 354 351 347 345 342 340 338 337 335 333 331 331 330 329 326 323 321 319 321 328 339 351
7 8 8 8 10 11 12 12 14 16 17 19 21 21 20 20 18 15 13 10 7 5 3 0 357 354 352 350 349 348 346 345 345 345 342 339 338 337 336 334 330 327 329 341
5 7 8 8 10 12 13 16 18 21 24 26 27 26 25 23 21 20 18 16 15 13 11 8 6 4 2 2 0 359 357 355 354 351 347 344 342 343 340 340 338 334 335 343
1 4 6 8 10 12 14 17 20 23 27 29 29 28 26 24 23 22 20 18 18 18 17 15 13 12 11 10 10 10 10 9 7 3 357 351 350 352 354 354 356 359 0 6
355 0 4 6 8 11 14 17 20 24 29 30 28 27 26 24 23 22 21 21 21 20 19 18 18 19 19 19 21 23 24 23 21 19 17 15 15 16 17 25 34 33 28 29
343 352 357 1 4 8 12 15 19 23 27 29 29 28 27 27 27 26 25 25 24 23 22 21 23 25 26 27 29 30 31 30 30 29 29 31 35 37 39 44 48 50 53 51
330 340 348 353 358 3 7 12 16 21 25 27 29 29 29 29 30 30 30 29 28 27 26 27 29 31 33 33 35 35 35 35 35 35 35 37 38 40 44 51 56 60 63 61
313 325 334 342 349 354 359 5 10 15 20 23 26 28 28 29 30 31 31 31 31 30 31 32 33 34 33 34 35 37 37 38 38 38 39 40 42 46 52 57 62 65 64 59
294 307 318 327 335 343 348 355 1 7 12 18 22 24 25 27 29 30 31 30 31 31 32 34 34 33 33 35 36 37 38 39 40 41 42 44 47 50 54 58 61 63 64 62
279 289 300 311 320 328 334 341 349 356 2 7 13 18 21 22 24 26 27 28 29 30 31 33 34 35 35 36 37 38 38 39 40 41 42 44 47 50 53 57 60 65 67 66
268 275 285 295 304 312 318 324 332 341 348 352 357 5 11 14 17 20 22 23 26 27 28 30 31 33 35 36 36 37 37 38 39 40 41 43 45 48 51 54 58 62 64 64
260 266 272 280 289 296 302 307 313 320 327 332 336 342 351 358 4 9 13 16 20 23 25 27 28 29 30 32 33 35 36 37 38 38 39 41 42 45 48 51 54 57 60 60
Height
5757 5758 5759 5760 5761 5762 5763 5765 5766 5767 5767 5768 5769 5769 5770 5770 5771 5771 5771 5771 5771 5770 5770 5769 5769 5768 5767 5766 5765 5764 5763 5761 5760 5758 5756 5754 5752 5749 5747 5744 5741 5737 5733 5729
5756 5757 5757 5758 5758 5759 5760 5761 5761 5762 5762 5762 5762 5763 5763 5763 5763 5763 5763 5762 5762 5761 5760 5760 5759 5759 5758 5757 5756 5754 5753 5752 5750 5748 5746 5744 5742 5739 5737 5734 5730 5727 5723 5718
5756 5756 5756 5756 5756 5756 5756 5756 5757 5757 5757 5756 5756 5756 5756 5756 5756 5755 5755 5754 5753 5753 5752 5751 5750 5749 5748 5747 5746 5745 5744 5742 5740 5739 5737 5734 5732 5730 5727 5724 5721 5717 5713 5708
5755 5756 5755 5757 5753 5753 5753 5752 5752 5752 5751 5751 5751 5750 5750 5749 5749 5748 5747 5746 5745 5744 5743 5743 5742 5741 5740 5739 5738 5737 5735 5734 5732 5730 5728 5726 5723 5721 5718 5715 5711 5707 5703 5699
5754 5754 5753 5753 5751 5750 5749 5748 5747 5746 5746 5745 5744 5744 5743 5743 5742 5742 5740 5739 5738 5737 5736 5735 5734 5734 5733 5732 5730 5729 5728 5726 5724 5722 5720 5717 5715 5712 5709 5706 5702 5699 5694 5690
5753 5752 5752 5751 5748 5746 5746 5744 5743 5741 5740 5739 5739 5738 5738 5737 5736 5734 5734 5733 5732 5731 5730 5729 5728 5727 5726 5725 5723 5722 5720 5718 5716 5714 5712 5709 5706 5703 5700 5697 5694 5690 5686 5682
5752 5751 5749 5748 5745 5744 5743 5741 5738 5736 5735 5734 5733 5733 5732 5731 5730 5729 5728 5727 5726 5725 5724 5723 5722 5721 5719 5718 5716 5715 5713 5711 5709 5706 5704 5701 5699 5696 5693 5690 5687 5683 5679 5675
5751 5749 5749 5745 5742 5741 5739 5735 5733 5731 5730 5729 5728 5727 5726 5725 5724 5724 5723 5722 5721 5720 5718 5717 5716 5715 5713 5711 5709 5708 5706 5704 5701 5699 5697 5694 5692 5689 5686 5683 5680 5677 5673 5669
5751 5750 5746 5743 5740 5738 5735 5732 5730 5728 5726 5725 5723 5722 5721 5720 5720 5719 5718 5717 5716 5715 5713 5712 5711 5709 5707 5705 5703 5701 5699 5697 5695 5692 5690 5687 5685 5683 5680 5677 5675 5671 5668 5665
5749 5746 5744 5741 5738 5736 5733 5730 5727 5725 5723 5722 5720 5719 5717 5716 5715 5715 5713 5713 5711 5710 5709 5707 5706 5704 5702 5700 5698 5696 5693 5691 5688 5686 5684 5681 5679 5677 5675 5672 5670 5667 5664 5661
5748 5746 5743 5740 5737 5734 5731 5728 5726 5723 5721 5719 5718 5716 5714 5713 5712 5711 5710 5709 5708 5706 5705 5703 5702 5700 5697 5695 5693 5690 5688 5685 5682 5680 5678 5676 5674 5672 5670 5668 5666 5664 5661 5658
5748 5745 5742 5739 5736 5733 5730 5727 5725 5722 5720 5718 5716 5714 5713 5711 5710 5709 5707 5706 5705 5703 5702 5700 5698 5695 5693 5691 5688 5686 5683 5680 5678 5675 5673 5671 5669 5667 5666 5664 5663 5661 5658 5656
5747 5744 5741 5738 5735 5732 5729 5726 5724 5721 5719 5717 5715 5713 5711 5710 5708 5707 5705 5704 5702 5700 5698 5696 5694 5692 5689 5687 5684 5682 5679 5677 5674 5671 5669 5667 5665 5664 5663 5662 5660 5658 5657 5655
5746 5743 5740 5737 5734 5731 5728 5726 5723 5721 5718 5716 5714 5712 5711 5709 5708 5706 5704 5702 5700 5698 5696 5693 5691 5688 5686 5684 5681 5679 5676 5673 5671 5668 5666 5664 5663 5661 5660 5659 5658 5657 5655 5654
5746 5743 5740 5737 5734 5731 5728 5725 5723 5720 5718 5716 5714 5712 5710 5709 5707 5705 5703 5700 5698 5696 5693 5691 5688 5686 5683 5680 5678 5675 5673 5671 5668 5666 5664 5662 5661 5660 5659 5658 5657 5656 5654 5653
5745 5743 5740 5737 5734 5731 5728 5725 5723 5720 5718 5716 5714 5712 5710 5708 5706 5704 5702 5700 5697 5695 5692 5689 5686 5683 5680 5678 5675 5673 5670 5668 5666 5664 5662 5661 5660 5659 5658 5657 5656 5654 5654 5653
5745 5742 5740 5737 5734 5731 5728 5726 5723 5721 5719 5717 5715 5713 5711 5709 5706 5704 5702 5699 5697 5694 5691 5688 5685 5682 5679 5676 5673 5671 5669 5667 5665 5663 5661 5660 5659 5658 5657 5656 5655 5654 5653 5652
5744 5742 5739 5737 5734 5731 5729 5726 5724 5721 5719 5717 5715 5713 5711 5709 5707 5705 5702 5699 5697 5694 5691 5688 5684 5681 5678 5675 5672 5670 5668 5666 5664 5662 5661 5659 5658 5657 5656 5655 5654 5653 5652 5652
5743 5741 5739 5737 5734 5732 5729 5727 5724 5722 5720 5718 5716 5714 5712 5710 5708 5705 5703 5700 5697 5695 5692 5688 5685 5681 5678 5675 5672 5670 5667 5665 5663 5662 5660 5658 5657 5656 5655 5654 5653 5653 5652 5652
5743 5741 5739 5737 5734 5732 5730 5728 5725 5723 5721 5719 5717 5715 5713 5711 5709 5706 5704 5701 5698 5695 5692 5689 5686 5682 5679 5676 5673 5670 5668 5666 5664 5662 5660 5658 5657 5656 5655 5654 5653 5653 5652 5651
5741 5740 5738 5736 5735 5732 5730 5728 5726 5724 5722 5720 5718 5716 5714 5712 5710 5707 5705 5702 5700 5697 5694 5690 5687 5684 5680 5677 5675 5672 5670 5668 5665 5663 5661 5659 5658 5657 5656 5655 5654 5653 5653 5652
5740 5739 5737 5736 5734 5732 5730 5728 5727 5725 5723 5721 5719 5717 5715 5713 5711 5709 5707 5704 5701 5698 5695 5692 5689 5686 5683 5680 5677 5675 5672 5670 5668 5665 5663 5661 5660 5658 5657 5656 5655 5654 5653 5653
5738 5737 5736 5735 5734 5732 5730 5729 5727 5725 5723 5722 5720 5718 5716 5715 5713 5710 5708 5706 5703 5700 5698 5695 5692 5689 5686 5683 5680 5678 5675 5673 5670 5668 5666 5663 5661 5660 5658 5657 5656 5656 5655 5654
5736 5736 5735 5734 5733 5731 5730 5728 5727 5725 5724 5722 5721 5719 5718 5716 5714 5712 5710 5708 5705 5703 5700 5697 5694 5692 5689 5686 5683 5681 5678 5676 5673 5671 5669 5666 5664 5662 5661 5659 5658 5657 5656 5656
5734 5733 5733 5732 5731 5730 5729 5728 5726 5725 5724 5722 5721 5720 5718 5717 5715 5713 5711 5709 5707 5705 5702 5700 5697 5694 5692 5689 5686 5684 5681 5679 5677 5674 5672 5670 5668 5665 5664 5662 5661 5660 5659 5658
5731 5731 5731 5730 5730 5729 5728 5727 5725 5724 5723 5722 5721 5720 5718 5717 5716 5714 5712 5711 5709 5707 5704 5702 5700 5697 5695 5692 5690 5687 5685 5682 5680 5678 5675 5673 5671 5669 5667 5666 5664 5663 5662 5660
5727 5727 5727 5727 5727 5727 5726 5725 5724 5723 5722 5721 5720 5719 5718 5717 5716 5715 5713 5712 5710 5708 5706 5704 5702 5700 5698 5695 5693 5691 5688 5686 5683 5681 5679 5677 5675 5673 5671 5669 5667 5666 5665 5663